Terminal Aerodrome Forecast
Issued by NWS Buffalo, NY

Current Version | Previous Version | Text Only | Print | Product List | Glossary On
Versions: 1 2 3 4 5 6 7 8 9 10 11 12 13 14 15 16 17 18 19 20 21 22 23 24
966
FTUS41 KBUF 011730 AAD
TAFBUF
TAF AMD
KBUF 011730Z 0118/0212 00000KT 4SM -DZ BR BKN007 OVC012
     FM012100 33004KT P6SM OVC009
     FM020400 02005KT P6SM BKN015
     FM020700 03004KT P6SM VCSH OVC015
     FM021000 03005KT 6SM -SHRA OVC007=

USA.gov is the U.S. government's official web portal to all federal, state and local government web resources and services.